星链-2332 (STARLINK-2332 )

导读 | 豆包AI

STARLINK-2332是美国SpaceX公司星链(Starlink)低轨卫星互联网星座的组成卫星,于2021年3月14日由猎鹰9号火箭发射升空。星链项目旨在构建全球覆盖的卫星互联网服务,单颗星链卫星设计寿命在5年以上。该卫星入轨后,服务于全球偏远地区网络覆盖,同时为海事、航空等移动场景提供宽带连接,助力SpaceX完成星座组网目标,目前该卫星仍在轨运行。

基本信息
目录编号:
47876
目录名称:
STARLINK-2332
国际标识:
2021-021S
轨道中心:
EARTH
卫星名称:
星链-2332
卫星全名:
星链-2332 (STARLINK-2332 )
卫星状态:
已陨落 最后检测时间 2025-02-18
发射日期:
2021-03-14 UTC
国别 :
美国 (US)
星等 :
--
轨道信息
数据来源 国际轨道数据
星历时间: 2025-02-18T10:58:30+0800
轨道信息已过期389天
半长轴: 6531.699km
偏心率: 0.0005319
轨道倾角: 53.025°
近地点辐角 256.540°
升交点赤经 153.443°
平近点角 245.592°
近地点: 150.089km
远地点: 157.039km
周期: 87.559分钟
每日圈数: 16.446125
详细信息
固有亮度:
5
最大亮度:
2.5
卫星平台:
Starlink V1.0
覆盖范围:
全球
运营商:
太空探索技术公司
运营商所在国:
美国
制造商(研发单位):
太空探索技术公司
制造商所在国:
美国
使用方式:
暂无
卫星简介
星链(Starlink)计划是由太空探索技术公司(SpaceX)提出的一个巨型低轨卫星互联网星座项目,计划在2019年至2024年间在太空搭建由约1.2万颗卫星组成的“星链”网络,其中1584颗将部署在地球上空550千米处的近地轨道,并从2020年开始工作。该卫星仍在工作。